Location: Unspecified
(33.3833°N, 0.0000°E)
Time: 13:39:01
(UTC+00:00)

Tiangong - Visible Passes

Search period start: 04 April 2026 00:00
Search period end: 14 April 2026 00:00
Orbit: 380 x 386 km, 41.5° (Epoch: 28 March)

Date Brightness Start Highest point End Pass type
(mag) Time Alt. Az. Time Alt. Az. Time Alt. Az.
4 Apr 0.1 19:50:25 10° NW 19:52:46 19° N 19:53:50 16° NNE visible
5 Apr 0.0 18:49:37 10° WNW 18:52:10 22° N 18:54:42 10° NE visible
5 Apr 0.6 20:27:14 10° NW 20:28:34 17° NNW 20:28:34 17° NNW visible
6 Apr 0.2 19:26:41 10° NW 19:28:58 18° N 19:31:03 11° NE visible
7 Apr -0.2 20:03:08 10° NW 20:05:38 23° N 20:05:38 23° N visible
8 Apr 0.0 19:02:40 10° NW 19:05:02 19° N 19:07:23 10° NE visible
8 Apr 0.8 20:39:13 10° NW 20:40:12 18° NW 20:40:12 18° NW visible
9 Apr -0.8 19:38:50 10° NW 19:41:40 30° NNE 19:42:34 25° NE visible
10 Apr -0.9 20:14:53 10° WNW 20:17:06 42° WNW 20:17:06 42° WNW visible
11 Apr -1.5 19:14:23 10° NW 19:17:26 46° NNE 19:19:30 18° E visible
11 Apr 1.2 20:51:28 10° W 20:51:39 11° W 20:51:39 11° W visible
12 Apr -1.7 19:50:34 10° WNW 19:53:36 48° SSW 19:54:04 43° S visible
13 Apr -2.2 18:49:53 10° WNW 18:53:02 82° NNE 18:56:10 10° ESE visible
13 Apr 0.8 20:28:03 10° WSW 20:28:41 12° SW 20:28:41 12° SW visible
